Lid_Strength_Index
4 4 4 4 4 4 4 4 4 4 3 3 3 3 3 3 3 3 6 3 2 -1 -0 2 2 3 2 3 3 4 10 13 12 11 11 7 8 5 4 5 4 4 4 3 1
4 4 4 4 4 4 4 4 4 4 4 4 3 3 3 3 4 4 -0 -3 -2 -1 3 2 3 3 5 4 5 7 10 11 8 8 9 7 7 6 6 6 6 5 3 2 2
4 4 4 5 4 4 4 4 3 4 4 4 4 3 3 3 4 4 -3 -3 -2 0 4 1 2 4 5 4 6 7 10 7 7 6 6 7 7 5 6 8 6 6 4 3 2
4 5 4 4 4 4 4 4 4 4 4 4 3 3 3 4 8 2 -3 -3 -3 5 5 3 3 6 6 6 5 9 7 7 7 6 7 7 6 7 6 6 4 3 3 3 3
5 5 4 4 4 4 4 4 4 4 4 4 3 3 3 4 5 0 -2 -2 2 6 6 4 4 5 7 5 7 7 7 7 6 6 6 6 7 7 6 4 3 3 3 3 3
5 5 4 4 4 4 4 4 4 4 4 4 3 3 4 6 2 -0 0 1 5 5 4 3 4 4 6 6 7 7 7 7 6 7 6 7 7 6 5 4 4 4 3 3 3
5 5 4 4 4 4 4 4 3 3 3 3 3 3 4 4 2 1 1 3 4 4 4 3 3 4 5 7 5 7 9 8 8 7 8 6 9 8 5 4 4 4 4 3 3
5 4 4 4 4 4 4 4 4 3 3 3 2 2 4 1 1 1 0 2 2 3 4 2 3 5 6 5 6 8 8 13 10 8 8 7 12 7 4 5 5 4 4 3 3
4 4 4 4 4 4 3 4 3 2 2 1 2 2 5 3 4 1 1 3 2 1 3 3 3 6 6 8 9 9 13 13 12 8 9 9 11 7 6 5 5 5 4 4 3
4 4 4 4 3 3 4 3 1 2 1 0 1 4 2 4 2 1 1 2 3 3 3 5 6 8 7 8 13 11 11 12 13 10 10 11 11 8 6 5 5 5 4 4 4
4 4 4 3 3 3 4 1 3 4 2 4 4 4 3 1 1 3 2 3 3 4 7 7 9 10 8 6 8 9 10 13 11 9 11 11 11 10 7 5 5 5 5 4 4
4 4 4 3 4 3 3 2 2 1 5 3 3 3 2 1 4 3 3 6 5 7 6 7 10 8 6 6 7 9 11 13 11 10 10 11 12 9 8 7 6 5 5 5 4
4 4 4 3 4 4 2 1 -0 0 5 4 3 3 3 2 4 4 4 6 7 7 7 8 8 7 7 8 8 9 11 12 13 10 9 11 13 11 8 7 6 5 5 4 4
4 4 4 4 4 0 2 0 0 0 8 6 5 4 3 3 5 2 3 5 6 8 7 7 5 7 7 8 7 10 8 9 11 12 16 11 18 13 10 9 7 6 5 5 4
4 4 4 4 2 2 1 -1 -0 2 16 6 5 1 3 5 4 4 3 4 6 6 6 7 7 7 8 7 6 9 8 9 11 12 14 14 15 14 11 11 9 7 6 5 4
4 4 4 2 1 1 -0 -0 2 9 12 7 5 5 5 4 5 4 4 3 4 5 6 6 4 5 6 6 5 6 9 10 11 14 18 13 15 15 13 11 9 7 6 5 4
4 4 4 1 2 -1 0 3 9 12 6 8 7 6 6 7 6 5 6 7 7 9 9 7 7 5 5 7 6 7 8 16 19 19 19 12 14 13 10 8 7 7 6 5 4
5 5 3 1 -1 -1 1 6 12 8 8 6 6 6 7 6 6 6 6 8 6 6 8 9 10 7 5 6 7 8 8 13 18 17 17 12 15 12 8 7 6 5 5 5 4
5 1 0 -0 -1 -0 4 10 9 7 6 7 6 8 8 7 7 7 7 7 6 6 9 9 9 6 5 5 6 8 10 7 12 11 13 15 13 9 7 7 6 6 5 5 5
1 1 1 -1 -1 1 6 8 7 5 5 6 8 7 9 8 8 7 8 6 7 5 5 7 10 6 6 5 5 7 6 10 10 16 18 15 14 15 11 9 7 7 6 5 4
3 4 1 -1 -0 4 8 7 6 4 4 6 7 8 7 8 8 8 9 7 6 6 5 6 7 8 6 7 8 8 8 8 8 10 14 19 17 10 11 10 8 7 6 5 4
2 6 1 -0 5 5 6 6 6 5 4 5 5 6 7 7 9 9 10 7 5 6 7 6 7 10 9 6 5 6 7 7 10 12 10 11 14 8 9 8 8 6 5 5 4
4 4 0 1 7 7 5 5 5 5 5 6 6 5 5 7 9 8 8 5 5 5 7 6 8 11 10 8 6 7 7 7 7 8 11 13 14 7 8 9 6 6 5 5 5
3 6 3 3 3 5 6 6 6 4 5 5 5 5 6 7 6 8 7 6 5 5 5 4 8 9 12 11 9 8 7 7 8 10 9 9 12 9 8 8 7 6 5 5 5
3 5 3 6 5 5 5 6 7 7 5 5 6 6 6 8 8 9 7 6 5 5 5 6 9 8 8 8 8 8 8 7 8 8 9 9 10 10 10 8 6 6 6 6 5
4 5 3 4 5 5 7 6 6 6 6 6 6 6 6 8 8 9 8 7 8 6 7 6 10 8 10 8 8 9 8 7 7 7 8 7 12 8 8 8 8 7 6 6 6
2 1 3 6 5 6 6 6 6 5 5 5 5 6 6 6 5 5 5 5 6 7 7 7 9 11 12 10 10 11 10 9 7 6 7 10 10 7 8 8 8 7 6 6 6